Location: Bayshore Village Mobile Home Park
(26.6945°N, 81.8642°W)
Time: 22:26:20
(UTC+00:00)

CZ-2D R/B - Pass Details

Date: 17 June 2021
Orbit: 791 x 845 km, 98.7° (Epoch: 31 July)

Event Time Altitude Azimuth Distance (km) Brightness Sun altitude
Rises 06:06:25 0° 28° (NNE) 3,288 6.1 -39.1°
Reaches altitude 10° 06:09:04 10° 40° (NE) 2,357 5.1 -39.0°
Enters shadow 06:10:33 17° 52° (NE) 1,906 4.4 -38.9°
